Location: Newark
(20.1200°S, 168.9600°E)
Time: 17:59:18
(UTC+00:00)

M-CUBED/EXP-1 PRIME - Visible Passes

Search period start: 25 January 2020 00:00
Search period end: 04 February 2020 00:00
Orbit: 429 x 668 km, 101.7° (Epoch: 24 January)

Date Brightness Start Highest point End Pass type
(mag) Time Alt. Az. Time Alt. Az. Time Alt. Az.
25 Jan ? 08:19:31 10° SSW 08:22:20 16° WSW 08:25:07 10° WNW visible
26 Jan ? 08:14:20 10° SSW 08:17:37 19° WSW 08:20:50 10° WNW visible
27 Jan ? 08:09:15 10° SSW 08:12:54 23° WSW 08:16:27 10° WNW visible
28 Jan ? 08:04:14 10° SSW 08:08:10 28° WSW 08:11:59 10° NW visible
29 Jan ? 07:59:17 10° S 08:03:26 34° WSW 08:07:26 10° NW visible
30 Jan ? 07:54:23 10° S 07:58:42 41° WSW 08:02:50 10° NW visible
31 Jan ? 07:49:30 10° S 07:53:57 51° WSW 07:58:11 10° NNW visible
01 Feb ? 07:44:39 10° S 07:49:12 63° WSW 07:53:29 10° NNW visible
